Savannah, GA

3:57 PM EDT on July 26, 2017 (GMT -0400)
Savannah International

Weather History for KSAV - January, 2013

Change the Weather History Date:

Thursday, January 24, 2013

  Actual Average Record
Temperature  
Mean Temperature 56 °F 50 °F  
Max Temperature 70 °F 61 °F 80 °F (1974)
Min Temperature 42 °F 39 °F 17 °F (2003)
Degree Days  
Heating Degree Days 9 15  
Month to date heating degree days 208 381  
Since 1 July heating degree days 827 1071  
Cooling Degree Days 0 0  
Month to date cooling degree days 24 0  
Year to date cooling degree days 24 0  
Growing Degree Days 7 (Base 50)    
Moisture  
Dew Point 38 °F    
Average Humidity 55    
Maximum Humidity 77    
Minimum Humidity 32    
Precipitation  
Precipitation 0.00 in 0.12 in 2.53 in (1984)
Month to date precipitation 0.29 2.81  
Year to date precipitation 0.29 2.81  
Snow  
Snow 0.00 in 0.00 in - ()
Month to date snowfall 0.0  
Since 1 July snowfall 0.0 0.2  
Snow Depth 0.00 in    
Sea Level Pressure  
Sea Level Pressure 30.23 in    
Wind  
Wind Speed 12 mph (WNW)    
Max Wind Speed 26 mph    
Max Gust Speed 36 mph    
Visibility 9 miles    
Events      
T = Trace of Precipitation, MM = Missing Value Source: NWS Daily Summary

Daily Weather History Graph

Daily Weather History Graph

Search for Another Location

Airport or City:

Trip Planner

Search our weather history database for the weather conditions in past years. The results will help you decide how hot, cold, wet, or windy it might be!

Date:

Astronomy

Jan. 24, 2013 Rise Set
Actual Time 7:22 AM EST 5:51 PM EST
Civil Twilight 6:56 AM EST 6:17 PM EST
Nautical Twilight 6:27 AM EST 6:47 PM EST
Astronomical Twilight 5:58 AM EST 7:16 PM EST
Moon 3:54 PM EST (1/24) 5:17 AM EST (1/24)
Length of Visible Light 11h 20m
Length of Day
10h 28m
Waxing Gibbous, 94% of the Moon is Illuminated
Jan 24
Waxing Gibbous
Jan 26
Full
Feb 3
Last Quarter
Feb 10
New
Feb 17
First Quarter

Hourly Weather History & Observations

Time (EST) Temp. Windchill Dew Point Humidity Pressure Visibility Wind Dir Wind Speed Gust Speed Precip Events Conditions
12:53 AM 46.9 °F - 36.0 °F 66% 30.22 in 8.0 mi WSW 8.1 mph - N/A   Clear
1:53 AM 46.0 °F 41.9 °F 37.0 °F 71% 30.23 in 8.0 mi West 8.1 mph - N/A   Partly Cloudy
2:53 AM 46.9 °F - 37.0 °F 68% 30.20 in 7.0 mi SW 8.1 mph - N/A   Clear
3:53 AM 48.0 °F - 37.9 °F 68% 30.19 in 7.0 mi West 11.5 mph - N/A   Clear
4:53 AM 48.9 °F - 39.0 °F 69% 30.17 in 8.0 mi WSW 8.1 mph - N/A   Partly Cloudy
5:53 AM 46.9 °F - 39.0 °F 74% 30.17 in 8.0 mi WSW 9.2 mph - N/A   Partly Cloudy
6:53 AM 48.0 °F - 41.0 °F 77% 30.19 in 8.0 mi SW 6.9 mph - N/A   Mostly Cloudy
7:53 AM 51.1 °F - 43.0 °F 74% 30.19 in 8.0 mi WSW 11.5 mph - N/A   Scattered Clouds
8:53 AM 54.0 °F - 43.0 °F 66% 30.21 in 8.0 mi West 13.8 mph - N/A   Partly Cloudy
9:53 AM 57.9 °F - 44.1 °F 60% 30.22 in 10.0 mi West 19.6 mph 24.2 mph N/A   Scattered Clouds
10:53 AM 63.0 °F - 45.0 °F 52% 30.21 in 10.0 mi WNW 12.7 mph 21.9 mph N/A   Scattered Clouds
11:53 AM 66.0 °F - 45.0 °F 47% 30.21 in 10.0 mi NW 16.1 mph 24.2 mph N/A   Scattered Clouds
12:53 PM 69.1 °F - 46.0 °F 44% 30.17 in 10.0 mi West 20.7 mph - N/A   Scattered Clouds
1:53 PM 70.0 °F - 43.0 °F 38% 30.16 in 10.0 mi NW 24.2 mph 31.1 mph N/A   Scattered Clouds
2:53 PM 70.0 °F - 42.1 °F 36% 30.16 in 10.0 mi WNW 13.8 mph - N/A   Mostly Cloudy
3:53 PM 68.0 °F - 37.9 °F 33% 30.18 in 10.0 mi WNW 16.1 mph - N/A   Mostly Cloudy
4:53 PM 66.9 °F - 35.1 °F 31% 30.19 in 10.0 mi NW 11.5 mph - N/A   Overcast
5:53 PM 62.1 °F - 33.1 °F 34% 30.23 in 10.0 mi North 6.9 mph - N/A   Mostly Cloudy
6:53 PM 55.0 °F - 28.0 °F 35% 30.27 in 10.0 mi North 4.6 mph - N/A   Mostly Cloudy
7:27 PM 51.8 °F - 39.2 °F 62% 30.31 in 10.0 mi East 17.3 mph 27.6 mph N/A   Mostly Cloudy
7:53 PM 50.0 °F - 37.9 °F 63% 30.33 in 10.0 mi East 16.1 mph - N/A   Scattered Clouds
8:53 PM 48.9 °F - 33.1 °F 54% 30.36 in 10.0 mi ENE 10.4 mph 26.5 mph N/A   Scattered Clouds
9:53 PM 46.9 °F - 30.0 °F 52% 30.38 in 10.0 mi ENE 12.7 mph 19.6 mph N/A   Partly Cloudy
10:53 PM 45.0 °F 38.5 °F 28.9 °F 53% 30.40 in 10.0 mi ENE 13.8 mph 23.0 mph N/A   Scattered Clouds
11:53 PM 43.0 °F 37.7 °F 28.0 °F 56% 30.41 in 10.0 mi ENE 9.2 mph - N/A   Scattered Clouds